Weather reports worldwide

Advertisment
Aubenas, France (7570): temperature & dewpoint: 08.07.2020 10:00:00 - 14.07.2020 10:00:00 (CEST)Aubenas, France (7570): temperature 5cm: 08.07.2020 10:00:00 - 14.07.2020 10:00:00 (CEST)Aubenas, France (7570): temperature -20cm & temperature -100cm: 08.07.2020 10:00:00 - 14.07.2020 10:00:00 (CEST)Aubenas, France (7570): wind speed & gusts: 08.07.2020 10:00:00 - 14.07.2020 10:00:00 (CEST)Aubenas, France (7570): wind direction: 08.07.2020 10:00:00 - 14.07.2020 10:00:00 (CEST)Aubenas, France (7570): reduced air pressure: 08.07.2020 10:00:00 - 14.07.2020 10:00:00 (CEST)Aubenas, France (7570): visibility: 08.07.2020 10:00:00 - 14.07.2020 10:00:00 (CEST)Aubenas, France (7570): precipitation: 08.07.2020 10:00:00 - 14.07.2020 10:00:00 (CEST)
Date & Time tt [°C] td [°C] tt 5cm [°C] tt -20cm [°C] tt -100cm [°C] ff [km/h] ff [kn] fx [km/h] fx [kn] dd ppp [hPa] vv [km] rr [mm]
14.07.2020 10:00:00 25,5 7,6 30,8 26,3 22,4 9 5 19 11 NNE 1016,6 20 0,0
14.07.2020 09:00:00 23,5 8,7 26,2 26,4 22,4 3 1 11 6 WSW 1017,0 20 0,0
14.07.2020 08:00:00 21,8 6,8 17,6 26,4 22,4 4 2 8 4 NNE 1017,1 20 0,0
14.07.2020 07:00:00 17,6 6,1 13,9 26,4 22,3 3 1 7 4 NE 1017,5 20 0,0
14.07.2020 06:00:00 17,9 5,5 14,5 26,4 22,3 2 1 19 10 SE 1017,5 20 0,0
14.07.2020 05:00:00 21,2 5,1 19,2 26,4 22,4 13 7 26 14 NNW 1017,0 20 0,0
14.07.2020 04:00:00 20,9 5,3 19,3 26,4 22,3 9 5 21 12 N 1017,3 20 0,0
14.07.2020 03:00:00 20,9 5,3 15,6 26,3 22,4 10 5 16 9 N 1017,7 20 0,0
14.07.2020 02:00:00 19,7 6,1 16,0 26,3 22,4 6 3 12 7 N 1018,0 20 0,0
14.07.2020 01:00:00 19,8 6,2 16,6 26,2 22,4 6 3 11 6 NNE 1018,1 20 0,0
14.07.2020 00:00:00 21,5 6,2 18,8 26,2 22,3 5 3 21 11 NE 1018,2 20 0,0
13.07.2020 23:00:00 24,1 5,4 22,7 26,1 22,3 12 6 26 14 N 1017,5 20 0,0
13.07.2020 22:00:00 25,0 7,6 23,2 26,0 22,3 13 7 23 12 NNW 1017,0 20 0,0
13.07.2020 21:00:00 26,9 8,8 26,1 26,0 22,3 13 7 24 13 N 1016,3 20 0,0
13.07.2020 20:00:00 28,4 8,6 28,6 25,9 22,3 13 7 22 12 N 1015,9 20 0,0
13.07.2020 19:00:00 30,1 7,9 31,5 25,9 22,3 13 7 25 13 NNE 1015,6 20 0,0
13.07.2020 18:00:00 30,8 7,9 35,7 25,9 22,3 11 6 31 17 NNE 1015,6 20 0,0
13.07.2020 17:00:00 30,7 9,0 34,2 25,8 22,3 10 5 24 13 ENE 1016,2 18 0,0
13.07.2020 16:00:00 30,9 9,2 35,4 25,9 22,3 13 7 28 15 N 1016,7 20 0,0
13.07.2020 15:00:00 30,8 9,1 34,5 25,9 22,3 11 6 27 15 NNW 1017,2 20 0,0
13.07.2020 14:00:00 29,7 8,7 37,8 25,9 22,3 11 6 27 14 NNE 1017,9 20 0,0
13.07.2020 13:00:00 29,3 8,9 36,9 25,9 22,3 8 5 20 11 NW 1018,5 20 0,0
13.07.2020 12:00:00 29,0 7,5 35,9 25,9 22,3 9 5 23 13 NNE 1018,8 20 0,0
13.07.2020 11:00:00 27,9 8,2 33,6 26,0 22,3 10 6 23 12 NNE 1019,2 20 0,0
13.07.2020 10:00:00 26,6 8,5 - 26,0 22,3 8 5 - - NNE 1019,6 20 -
13.07.2020 09:00:00 - - - - - - - - - - - - -
13.07.2020 08:00:00 - - - - - - - - - - - - -
13.07.2020 07:00:00 - - - - - - - - - - - - -
13.07.2020 06:00:00 - - - - - - - - - - - - -
13.07.2020 05:00:00 - - - - - - - - - - - - -
13.07.2020 04:00:00 - - - - - - - - - - - - -
13.07.2020 03:00:00 - - - - - - - - - - - - -
13.07.2020 02:00:00 - - - - - - - - - - - - -
13.07.2020 01:00:00 - - - - - - - - - - - - -
13.07.2020 00:00:00 - - - - - - - - - - - - -
12.07.2020 23:00:00 - - - - - - - - - - - - -
12.07.2020 22:00:00 - - - - - - - - - - - - -
12.07.2020 21:00:00 - - - - - - - - - - - - -
12.07.2020 20:00:00 - - - - - - - - - - - - -
12.07.2020 19:00:00 - - - - - - - - - - - - -
12.07.2020 18:00:00 - - - - - - - - - - - - -
12.07.2020 17:00:00 - - - - - - - - - - - - -
12.07.2020 16:00:00 - - - - - - - - - - - - -
12.07.2020 15:00:00 - - - - - - - - - - - - -
12.07.2020 14:00:00 - - - - - - - - - - - - -
12.07.2020 13:00:00 - - - - - - - - - - - - -
12.07.2020 12:00:00 - - - - - - - - - - - - -
12.07.2020 11:00:00 - - - - - - - - - - - - -
12.07.2020 10:00:00 - - - - - - - - - - - - -
12.07.2020 09:00:00 - - - - - - - - - - - - -
12.07.2020 08:00:00 - - - - - - - - - - - - -
12.07.2020 07:00:00 - - - - - - - - - - - - -
12.07.2020 06:00:00 - - - - - - - - - - - - -
12.07.2020 05:00:00 - - - - - - - - - - - - -
12.07.2020 04:00:00 - - - - - - - - - - - - -
12.07.2020 03:00:00 - - - - - - - - - - - - -
12.07.2020 02:00:00 - - - - - - - - - - - - -
12.07.2020 01:00:00 - - - - - - - - - - - - -
12.07.2020 00:00:00 - - - - - - - - - - - - -
11.07.2020 23:00:00 - - - - - - - - - - - - -
11.07.2020 22:00:00 - - - - - - - - - - - - -
11.07.2020 21:00:00 - - - - - - - - - - - - -
11.07.2020 20:00:00 - - - - - - - - - - - - -
11.07.2020 19:00:00 - - - - - - - - - - - - -
11.07.2020 18:00:00 - - - - - - - - - - - - -
11.07.2020 17:00:00 - - - - - - - - - - - - -
11.07.2020 16:00:00 - - - - - - - - - - - - -
11.07.2020 15:00:00 - - - - - - - - - - - - -
11.07.2020 14:00:00 - - - - - - - - - - - - -
11.07.2020 13:00:00 - - - - - - - - - - - - -
11.07.2020 12:00:00 - - - - - - - - - - - - -
11.07.2020 11:00:00 - - - - - - - - - - - - -
11.07.2020 10:00:00 - - - - - - - - - - - - -
11.07.2020 09:00:00 - - - - - - - - - - - - -
11.07.2020 08:00:00 - - - - - - - - - - - - -
11.07.2020 07:00:00 - - - - - - - - - - - - -
11.07.2020 06:00:00 - - - - - - - - - - - - -
11.07.2020 05:00:00 - - - - - - - - - - - - -
11.07.2020 04:00:00 - - - - - - - - - - - - -
11.07.2020 03:00:00 - - - - - - - - - - - - -
11.07.2020 02:00:00 - - - - - - - - - - - - -
11.07.2020 01:00:00 - - - - - - - - - - - - -
11.07.2020 00:00:00 - - - - - - - - - - - - -
10.07.2020 23:00:00 - - - - - - - - - - - - -
10.07.2020 22:00:00 - - - - - - - - - - - - -
10.07.2020 21:00:00 - - - - - - - - - - - - -
10.07.2020 20:00:00 - - - - - - - - - - - - -
10.07.2020 19:00:00 - - - - - - - - - - - - -
10.07.2020 18:00:00 24,2 18,4 21,5 26,0 21,9 25 14 41 22 N 1013,5 20 0,0
10.07.2020 17:00:00 30,8 16,8 32,3 26,0 21,9 19 10 32 17 N 1012,6 20 0,0
10.07.2020 16:00:00 34,1 15,1 41,4 26,0 21,9 10 5 25 13 S 1012,8 20 0,0
10.07.2020 15:00:00 32,5 15,1 37,8 26,0 21,9 8 4 21 11 ESE 1013,6 20 0,0
10.07.2020 14:00:00 32,3 14,0 36,8 26,0 21,9 9 5 19 10 S 1014,5 20 0,0
10.07.2020 13:00:00 31,5 14,2 39,1 26,0 21,9 7 4 18 10 S 1015,2 20 0,0
10.07.2020 12:00:00 30,3 14,0 36,6 26,1 21,9 6 3 13 7 SSE 1015,5 20 0,0
10.07.2020 11:00:00 27,9 14,2 34,5 26,1 21,9 7 4 13 7 E 1016,3 20 0,0
10.07.2020 10:00:00 26,4 14,8 29,3 26,1 21,9 3 2 10 6 NNW 1016,5 20 0,0
10.07.2020 09:00:00 24,3 14,7 26,1 26,1 21,9 3 2 6 4 ENE 1016,8 3,5 0,0
10.07.2020 08:00:00 20,9 14,3 19,1 26,1 21,9 3 1 6 4 N 1016,7 20 0,0
10.07.2020 07:00:00 17,7 13,8 14,5 26,1 21,8 0 0 3 2 N 1017,1 20 0,0
10.07.2020 06:00:00 17,2 13,1 14,8 26,1 21,8 0 0 6 3 N 1017,2 20 0,0
10.07.2020 05:00:00 18,2 13,5 15,2 26,1 21,9 0 0 8 4 N 1016,8 20 0,0
10.07.2020 04:00:00 19,0 13,6 17,3 26,1 21,9 5 3 10 5 NNE 1016,6 20 0,0
10.07.2020 03:00:00 20,1 14,2 18,6 26,0 21,8 6 3 10 6 NNE 1017,0 20 0,0
10.07.2020 02:00:00 20,8 13,7 17,6 25,9 21,9 6 3 9 5 N 1017,3 20 0,0
10.07.2020 01:00:00 21,9 11,6 18,3 25,9 21,8 2 1 5 3 NNE 1017,3 20 0,0
10.07.2020 00:00:00 23,5 11,2 19,5 25,8 21,8 3 2 10 5 WSW 1016,7 20 0,0
09.07.2020 23:00:00 25,4 10,8 23,6 25,7 21,8 6 4 13 7 SSW 1016,3 20 0,0
09.07.2020 22:00:00 27,1 11,2 25,9 25,6 21,8 7 4 23 13 WSW 1015,6 20 0,0
09.07.2020 21:00:00 29,4 11,4 28,9 25,6 21,8 14 8 26 14 S 1014,6 20 0,0
09.07.2020 20:00:00 32,1 12,3 33,0 25,5 21,8 17 9 33 18 SSW 1014,0 20 0,0
09.07.2020 19:00:00 34,1 12,4 37,2 25,5 21,8 19 11 32 17 SSW 1013,5 20 0,0
09.07.2020 18:00:00 35,2 10,9 40,9 25,4 21,8 10 5 25 13 S 1013,7 20 0,0
09.07.2020 17:00:00 35,3 11,0 41,9 25,4 21,8 12 6 24 13 S 1014,1 20 0,0
09.07.2020 16:00:00 34,9 10,7 41,6 25,4 21,8 8 4 21 12 ESE 1014,8 20 0,0
09.07.2020 15:00:00 34,2 10,1 41,7 25,4 21,8 8 5 25 14 S 1015,3 17 0,0
09.07.2020 14:00:00 33,1 10,4 41,0 25,4 21,7 7 4 22 12 S 1016,0 8 0,0
09.07.2020 13:00:00 32,4 10,4 39,3 25,5 21,7 9 5 16 8 S 1016,5 20 0,0
09.07.2020 12:00:00 30,6 11,5 37,1 25,5 21,8 6 4 16 9 SSE 1016,7 20 0,0
09.07.2020 11:00:00 28,6 12,5 34,0 25,6 21,7 8 4 15 8 SSE 1017,4 20 0,0
09.07.2020 10:00:00 25,8 11,2 30,0 25,6 21,7 7 4 14 8 SSW 1017,8 20 0,0
09.07.2020 09:00:00 24,2 11,8 26,3 25,6 21,7 3 2 8 5 SE 1017,7 20 0,0
09.07.2020 08:00:00 20,6 11,2 18,6 25,6 21,7 0 0 5 3 N 1018,0 20 0,0
09.07.2020 07:00:00 16,0 10,5 13,0 25,6 21,7 4 2 8 4 NNE 1018,3 20 0,0
09.07.2020 06:00:00 14,9 10,1 11,7 25,6 21,7 6 3 10 5 NNE 1018,7 20 0,0
09.07.2020 05:00:00 16,1 10,4 12,0 25,6 21,7 0 0 5 3 N 1018,9 20 0,0
09.07.2020 04:00:00 16,7 10,5 12,6 25,6 21,7 2 1 8 4 W 1018,5 20 0,0
09.07.2020 03:00:00 17,5 10,8 15,1 25,5 21,7 4 2 10 5 NNE 1018,3 20 0,0
09.07.2020 02:00:00 18,8 11,1 17,0 25,5 21,7 6 3 13 7 NNE 1018,4 20 0,0
09.07.2020 01:00:00 19,6 11,4 15,9 25,4 21,7 4 2 8 4 ENE 1018,5 20 0,0
09.07.2020 00:00:00 21,9 9,8 18,3 25,3 21,7 4 2 16 8 W 1018,0 20 0,0
08.07.2020 23:00:00 24,2 9,0 21,5 25,2 21,7 11 6 18 10 N 1017,4 20 0,0
08.07.2020 22:00:00 24,3 9,1 20,9 25,2 21,7 5 3 11 6 NNE 1016,6 20 0,0
08.07.2020 21:00:00 27,8 9,1 26,8 25,1 21,7 9 5 19 10 ENE 1015,7 20 0,0
08.07.2020 20:00:00 30,0 9,0 31,1 25,0 21,7 9 5 21 11 E 1015,4 20 0,0
08.07.2020 19:00:00 30,7 9,0 35,0 25,0 21,7 11 6 23 12 E 1015,4 20 0,0
08.07.2020 18:00:00 31,1 8,7 37,5 25,0 21,7 11 6 22 12 E 1015,7 20 0,0
08.07.2020 17:00:00 31,8 8,1 39,4 25,0 21,7 5 3 25 13 ENE 1016,0 20 0,0
08.07.2020 16:00:00 31,4 7,8 38,9 25,0 21,7 9 5 24 13 E 1016,5 20 0,0
08.07.2020 15:00:00 30,3 6,2 38,0 25,0 21,6 10 6 26 14 ENE 1016,8 20 0,0
08.07.2020 14:00:00 29,8 5,8 37,4 25,0 21,6 11 6 22 12 ENE 1017,2 20 0,0
08.07.2020 13:00:00 29,0 5,1 36,0 25,1 21,6 10 5 28 15 NE 1017,6 20 0,0
08.07.2020 12:00:00 28,0 6,7 33,9 25,1 21,6 13 7 31 17 NE 1017,7 20 0,0
08.07.2020 11:00:00 27,0 7,9 32,2 25,1 21,6 14 7 31 17 NE 1017,7 20 0,0
08.07.2020 10:00:00 25,2 7,3 29,6 25,2 21,6 14 8 31 17 NNE 1017,7 20 0,0

tt = temperature
td = dewpoint
tt 5cm = temperature 5cm
tt -20cm = temperature -20cm
tt -100cm = temperature -100cm
ff = wind speed
fx = gusts
dd = wind direction
ppp = reduced air pressure
vv = visibility
rr = precipitation

Next stations